GFSNW_925_temp_021.txt.gz
Temp
8 8 8 8 9 11 10 15 17 16 15 19 20 21 24 25 26 25 26 26 27 26 27 26 26 26 27 27 27 26 27 26 24 25 26 26 26 26 26 23 24 23 22 24
7 7 8 8 9 10 12 17 18 15 17 19 19 23 24 25 25 25 25 25 27 27 26 25 26 26 22 23 25 26 25 25 23 24 25 25 25 26 26 26 23 23 21 24
8 8 7 8 9 11 14 19 18 16 17 22 22 22 24 23 25 26 26 26 26 26 25 26 25 25 22 22 24 16 20 25 24 23 25 26 24 25 26 25 23 23 24 26
8 7 7 7 9 11 13 21 21 21 17 21 22 23 24 24 24 25 26 25 26 26 25 25 24 25 22 21 16 21 23 23 25 25 24 24 25 26 25 25 25 24 25 26
7 7 7 7 9 12 12 20 22 22 21 21 22 21 23 25 25 25 24 25 26 27 25 25 25 25 24 24 22 23 23 22 21 21 24 23 23 25 25 26 26 26 26 26
6 7 7 7 9 10 14 18 22 23 19 22 22 23 24 25 26 23 26 26 26 25 25 24 24 25 25 25 23 22 22 20 20 21 21 21 18 21 24 25 26 25 24 26
6 6 6 7 9 10 17 19 21 20 19 22 22 23 24 25 25 24 24 26 25 21 23 23 23 23 22 22 21 23 18 20 19 19 15 16 25 24 24 24 25 26 26 26
6 6 6 7 9 11 15 19 21 22 16 21 23 23 24 25 24 24 23 21 22 22 23 21 20 19 18 19 20 20 21 20 18 17 20 23 24 24 22 22 23 25 24 25
6 6 6 8 10 12 10 16 18 23 20 21 23 23 24 22 22 20 18 20 20 20 21 20 21 21 22 20 20 19 18 18 19 18 17 16 22 22 21 22 21 23 23 23
6 7 7 9 11 11 9 17 18 23 22 23 23 23 23 24 23 22 18 18 18 19 19 17 20 21 22 21 19 14 16 16 17 18 17 20 23 22 21 20 20 21 21 22
8 6 8 10 12 11 9 16 15 23 23 21 21 23 23 23 24 20 20 19 19 19 18 18 20 19 20 21 22 19 19 18 16 17 15 16 22 21 20 21 21 22 21 21
7 8 10 11 12 12 12 16 16 19 22 19 18 17 17 20 24 24 20 24 21 21 21 18 19 15 12 20 19 21 20 21 21 21 21 21 21 21 22 21 20 20 20 20
9 10 11 11 12 13 12 17 17 19 19 18 19 18 16 16 17 17 22 22 23 22 22 18 17 15 17 14 19 21 21 20 19 19 22 22 22 22 21 21 20 20 20 20
11 11 11 12 12 14 12 17 16 20 18 14 17 16 16 15 16 18 18 21 19 20 21 17 13 15 19 18 20 19 20 20 20 20 21 22 21 21 20 19 19 19 19 19
11 11 12 12 13 14 13 14 13 16 21 14 16 16 15 16 17 18 18 19 19 19 17 13 17 17 17 15 17 19 20 20 18 18 19 18 20 19 17 17 16 16 16 16
12 12 12 13 13 14 14 17 13 14 16 17 16 15 15 16 17 18 20 20 21 22 19 15 18 16 18 14 18 18 17 17 16 18 17 17 17 15 14 13 13 13 12 11
12 13 13 13 13 13 16 17 13 14 15 15 14 14 15 15 17 15 17 18 18 20 18 13 16 16 18 12 17 16 14 14 15 14 15 16 14 13 12 11 10 7 6 5
13 13 13 12 13 13 14 8 13 15 14 18 14 12 13 14 13 13 14 14 17 15 13 12 13 14 15 16 14 13 13 14 13 13 14 13 13 12 10 8 6 6 6 5
11 12 12 13 14 14 11 10 14 14 14 17 14 12 13 13 11 12 12 14 13 13 11 13 14 10 13 12 12 12 11 11 11 12 12 11 9 7 7 7 6 5 5 5
14 16 16 13 10 10 14 14 13 15 14 13 9 12 11 13 10 10 12 11 11 12 11 12 11 12 9 9 9 9 10 12 11 9 8 7 6 6 6 6 7 8 7 7
14 14 11 9 10 11 12 12 14 15 13 11 10 10 11 11 12 10 9 10 10 11 12 12 11 11 9 7 7 7 9 10 9 8 7 7 8 7 7 7 5 4 3 2
12 12 10 10 11 13 11 9 10 12 11 8 9 9 10 9 12 11 10 9 10 12 12 11 12 7 6 5 5 6 7 8 8 7 7 7 6 6 4 3 2 0 1 0
11 12 8 12 9 11 10 9 10 10 7 7 8 8 9 9 11 9 11 10 11 12 10 11 9 6 5 5 7 7 7 7 7 7 6 5 3 1 2 1 -0 1 2 2
9 9 9 8 10 7 7 7 7 4 5 7 8 7 9 8 8 9 9 7 9 10 10 10 5 4 4 5 7 7 6 4 6 5 3 2 0 -1 -1 -1 -1 -1 -1 -1
7 7 7 6 4 4 3 3 4 3 4 6 9 9 10 8 8 8 8 8 10 10 10 7 4 3 3 5 7 6 4 2 5 4 1 0 0 -0 -1 -2 -2 -2 -3 -3
5 4 5 4 5 4 4 3 4 3 4 5 7 7 9 8 8 9 10 10 11 8 6 4 3 2 3 4 6 5 5 5 4 3 1 -0 -1 -1 -1 -2 -3 -3 -3 -3
5 4 2 4 3 3 3 3 3 2 4 6 6 9 7 6 8 8 8 8 7 5 4 3 3 2 3 5 4 3 4 4 3 2 1 -1 -2 -2 -1 -0 -1 -2 -2 -4

GFSNW_925_temp_024.txt.gz
Temp
5 7 7 8 8 9 9 14 15 17 14 16 18 19 22 23 25 27 26 27 28 27 28 27 27 27 28 29 28 26 27 26 23 26 28 28 27 26 26 22 23 23 21 23
5 6 7 8 8 8 10 15 17 15 16 17 17 20 22 24 25 26 26 26 27 28 27 26 27 27 24 25 26 25 26 25 22 24 26 27 26 26 27 26 23 22 20 23
5 6 7 7 8 8 11 17 15 14 15 20 20 20 22 23 25 26 27 26 27 27 26 27 26 26 23 24 25 17 23 25 24 22 25 26 25 26 27 26 20 21 21 25
4 6 7 7 8 8 9 17 18 17 15 17 20 22 23 23 24 26 27 26 26 26 25 26 25 26 23 23 17 22 24 23 24 25 26 26 25 26 26 26 25 22 24 25
4 6 7 7 7 7 9 16 19 20 20 19 20 20 22 24 25 25 25 25 26 26 25 26 25 26 24 23 22 23 24 22 22 21 24 25 24 25 25 26 26 26 26 26
5 6 7 7 7 7 10 15 19 20 18 19 20 21 23 24 25 26 27 26 26 26 26 26 25 25 26 26 23 23 23 20 19 20 21 21 18 21 23 25 26 26 24 26
5 6 7 7 7 7 12 15 19 18 18 20 21 22 23 24 25 25 26 27 26 24 25 24 24 24 24 24 23 25 19 20 19 18 15 17 23 26 25 25 25 26 26 26
5 6 6 7 6 7 9 15 14 16 14 21 22 23 24 25 25 25 25 23 24 24 24 21 19 19 18 20 22 22 22 19 17 16 19 22 23 25 24 23 23 24 24 24
6 6 6 7 6 5 8 10 10 14 17 20 23 23 24 23 22 21 19 22 23 24 22 20 20 20 22 21 20 21 20 18 18 17 17 17 22 23 23 23 20 23 22 22
6 6 6 6 6 6 6 10 10 13 17 22 23 23 23 24 22 21 20 19 19 20 17 15 20 21 23 20 19 14 16 16 15 17 16 18 23 23 22 20 19 21 21 21
6 6 6 6 7 7 6 9 9 11 15 23 24 25 24 23 23 19 20 20 20 20 18 17 20 18 20 21 22 18 17 17 15 17 14 15 23 22 19 20 21 21 21 21
6 6 6 8 7 7 7 9 11 10 15 19 18 18 19 22 24 21 20 23 21 21 21 18 19 14 13 18 19 23 20 21 20 19 18 22 23 22 22 21 20 20 20 20
5 6 7 8 7 8 8 10 11 14 18 18 20 19 17 18 18 20 21 22 24 23 23 19 18 13 16 14 18 21 22 22 19 19 23 23 23 22 22 21 20 20 20 20
6 6 8 8 7 8 9 8 10 15 18 13 17 17 18 17 18 19 20 23 21 21 21 17 12 14 20 17 20 19 21 21 20 20 21 22 22 20 18 18 18 18 17 16
8 8 8 8 8 10 9 10 10 15 20 15 16 17 17 18 18 19 20 21 21 20 17 12 17 18 17 16 18 18 21 21 18 17 19 18 18 16 17 15 15 15 14 13
7 7 8 10 10 11 9 12 15 15 19 17 15 16 17 19 19 20 20 20 21 21 19 15 19 18 18 15 17 20 18 18 18 18 17 17 16 14 13 12 12 11 10 9
9 10 10 11 11 10 13 14 12 15 17 16 13 13 16 18 18 18 19 20 20 21 18 15 17 17 17 12 17 18 16 16 16 15 16 14 15 13 12 9 8 7 6 6
10 11 11 11 11 11 13 12 13 14 17 16 13 11 13 16 14 14 16 17 18 16 14 15 15 14 15 16 16 15 14 15 14 14 15 14 12 10 9 8 8 7 7 6
11 11 11 10 14 14 12 13 13 14 14 12 13 12 13 15 12 12 13 16 13 14 12 15 15 11 14 16 15 14 13 14 13 14 12 10 9 8 8 8 7 6 6 6
11 12 16 11 10 12 11 13 15 13 11 13 10 12 12 13 10 10 11 11 12 12 12 13 13 12 12 11 12 12 12 13 13 9 7 7 7 7 7 8 6 5 5 5
14 13 10 9 10 12 12 11 13 13 11 11 10 11 11 12 12 10 10 11 11 12 12 12 12 12 10 10 9 10 11 11 10 9 8 8 8 7 6 5 4 3 2 0
13 12 10 10 11 10 9 10 10 11 11 8 9 10 11 10 13 11 10 9 11 12 11 11 12 10 9 8 7 8 9 9 9 8 7 7 6 5 4 2 1 0 -0 -1
13 10 7 10 8 10 11 9 9 9 7 6 8 8 9 10 11 10 10 10 11 12 10 12 10 7 6 7 8 8 8 7 7 6 6 4 2 1 1 -1 -1 2 1 -2
9 8 8 7 8 6 6 6 6 4 4 6 8 8 8 8 8 8 10 7 10 10 10 11 6 6 5 7 7 7 6 4 5 4 2 0 -1 -1 -2 -2 -2 -2 -2 -2
6 6 6 5 4 3 3 3 4 3 5 6 9 9 9 8 7 8 8 8 10 10 10 7 5 4 5 6 6 4 3 2 3 2 0 -1 -1 -1 -2 -2 -2 -2 -3 -3
4 3 5 4 5 4 3 3 4 3 4 6 8 8 8 8 8 9 9 10 10 8 5 4 3 3 4 5 5 4 5 4 3 1 -0 -1 -1 -0 -1 -2 -2 -3 -3 -3
4 4 2 3 3 3 3 2 3 3 5 6 7 8 7 7 8 8 7 7 6 3 3 2 2 3 3 5 3 3 4 3 2 1 1 -0 -1 -1 -0 0 -1 -1 -2 -3

GFSNW_925_temp_027.txt.gz
Temp
5 5 6 7 7 8 8 10 11 14 12 11 12 13 17 19 22 22 23 25 25 24 24 23 23 23 24 24 24 23 18 18 16 22 24 25 25 23 21 15 20 15 13 17
4 4 6 6 7 8 8 11 13 11 14 13 12 15 17 19 20 21 23 24 25 25 24 21 23 22 22 22 23 23 23 20 15 19 21 24 24 24 24 21 15 17 14 17
4 4 5 6 7 8 9 11 12 12 12 16 15 15 17 17 20 21 23 24 23 23 24 24 22 20 22 22 20 17 21 22 18 16 20 22 23 23 23 21 14 16 15 20
4 4 4 6 7 7 9 10 13 15 13 13 15 17 18 18 19 21 23 23 23 22 23 24 24 21 20 22 17 22 20 20 22 21 22 23 23 23 23 22 20 18 19 21
4 4 4 5 7 7 8 11 15 14 14 15 15 16 17 19 21 22 22 22 23 23 23 22 22 22 21 21 20 21 21 18 20 20 21 20 21 21 22 22 22 23 23 21
4 4 4 5 6 7 8 11 12 16 14 15 15 16 18 19 21 21 23 23 22 22 23 22 22 22 21 20 19 18 18 14 14 17 17 18 15 19 20 21 22 22 20 20
4 4 4 5 6 7 8 11 13 14 14 15 16 18 19 20 20 20 23 23 21 22 19 19 18 18 19 20 19 19 15 15 12 12 12 14 18 23 23 21 21 20 19 19
4 4 4 5 7 6 7 7 11 12 9 16 17 18 19 20 21 20 22 22 21 19 19 15 16 12 16 20 20 18 17 12 12 12 12 16 19 21 21 21 19 19 18 18
4 4 5 6 7 6 6 7 7 11 13 16 19 18 20 18 16 16 18 17 15 20 14 12 16 14 17 16 19 16 16 13 11 11 12 12 16 21 21 21 14 18 17 17
5 5 5 6 6 7 6 7 7 9 13 16 18 18 19 20 16 14 15 16 16 17 9 12 12 14 19 15 14 13 10 10 11 8 9 12 18 20 21 15 14 18 18 17
5 5 6 6 7 7 6 6 7 9 11 14 18 20 19 19 17 14 15 14 14 11 13 12 12 11 13 14 16 14 13 11 9 10 11 13 19 20 17 15 17 17 18 18
6 6 6 6 7 7 7 5 7 8 9 12 14 18 18 21 18 15 15 17 15 15 13 12 10 11 9 13 13 18 14 14 12 13 12 15 20 18 17 16 16 16 16 15
5 6 6 6 6 6 6 6 9 9 10 11 13 15 17 21 21 21 15 16 18 18 15 11 11 12 8 11 11 17 19 19 13 15 19 19 18 16 15 15 14 14 12 12
5 6 6 5 6 6 7 7 8 9 9 10 13 17 16 18 20 21 21 18 18 16 13 9 9 11 14 10 13 12 15 17 17 16 18 15 14 14 14 13 13 11 11 10
5 5 6 6 6 7 7 7 8 9 9 11 12 15 17 18 19 20 20 17 16 13 11 7 10 9 11 7 9 10 16 16 12 10 15 13 12 12 12 11 10 10 8 7
6 6 5 6 6 6 8 9 10 8 8 10 11 13 15 18 19 17 17 15 16 15 12 10 12 14 11 9 9 15 15 14 14 14 13 12 11 9 9 8 8 7 7 6
6 5 6 6 6 8 9 10 9 9 8 11 9 10 13 16 14 11 14 15 13 13 12 9 11 13 11 7 10 14 14 13 13 13 12 11 11 8 8 7 6 6 6 5
6 7 6 7 8 9 9 10 11 12 13 11 10 9 10 14 9 9 11 11 10 11 10 9 8 9 6 10 12 13 13 13 12 11 11 9 8 8 7 7 6 5 4 4
6 6 7 7 9 10 11 12 13 15 13 9 8 10 11 11 9 8 10 11 9 10 8 8 9 6 10 13 12 11 11 12 10 9 9 8 7 7 7 5 5 4 3 3
9 9 10 9 9 11 12 13 10 9 9 8 7 8 10 11 7 8 8 6 9 8 9 9 7 6 9 9 9 10 11 10 8 6 6 6 7 6 6 5 4 4 3 1
10 9 8 9 11 12 7 7 8 8 7 6 7 8 9 9 9 8 7 8 7 8 8 8 8 7 8 8 8 7 8 10 9 8 7 7 6 5 3 2 1 -0 -1 -2
12 10 10 10 9 8 7 7 6 8 8 5 7 7 9 7 9 7 8 9 7 9 9 9 8 7 7 7 7 8 8 7 7 7 6 5 4 3 1 -0 -1 -2 -2 -2
13 8 6 9 6 8 9 8 9 8 5 5 5 7 6 7 8 7 7 10 9 7 9 9 6 7 6 7 7 6 6 6 4 3 3 2 0 -0 -1 -1 -1 -2 -2 -3
6 6 7 6 7 6 5 5 5 3 3 4 5 6 6 5 6 6 9 6 7 9 9 8 5 5 5 6 6 6 4 2 2 1 -1 -1 -2 -2 -2 -2 -1 -2 -3 -3
4 5 5 4 3 3 3 3 3 3 3 4 6 6 7 6 7 6 7 8 9 8 7 6 4 4 5 5 4 3 2 1 0 -0 -1 -2 -2 -3 -3 -2 -2 -3 -3 -3
3 3 5 4 4 4 3 3 3 3 3 4 5 6 7 7 7 8 8 8 7 6 4 3 3 3 3 3 3 3 2 1 0 -0 -1 -1 -2 -2 -3 -3 -3 -3 -3 -4
3 3 2 3 3 3 3 2 3 3 4 5 5 7 6 5 7 6 5 5 4 3 2 2 2 3 2 1 2 2 1 0 -1 -1 -1 -1 -1 -2 -2 -2 -3 -3 -3 -3

GFSNW_925_temp_030.txt.gz
Temp
5 5 5 6 5 6 7 9 11 10 11 11 10 13 15 15 18 20 19 21 20 21 21 21 21 21 22 21 20 21 19 18 15 20 22 22 21 21 19 14 19 12 12 17
4 4 5 6 6 6 7 9 11 10 12 11 10 13 15 16 18 19 20 21 22 24 21 21 21 21 22 21 21 20 19 18 15 18 20 21 22 22 21 17 13 16 13 16
4 5 5 5 5 5 7 9 10 11 11 14 13 13 14 15 17 17 18 19 20 22 21 21 21 21 21 19 20 17 19 18 17 16 19 20 22 22 21 19 13 15 14 19
4 5 5 5 5 6 6 9 12 12 11 11 13 14 14 14 16 18 19 19 19 19 20 19 20 20 20 20 18 21 19 19 20 19 20 21 22 21 22 20 19 17 18 18
4 4 4 5 4 6 6 10 12 12 11 13 12 14 14 15 17 18 19 19 19 19 21 20 19 19 19 20 20 20 18 17 19 20 19 19 21 20 20 20 21 19 20 20
4 4 4 4 4 6 6 8 10 13 12 13 12 13 15 16 17 18 19 20 20 19 20 21 20 19 19 19 18 17 16 13 13 17 15 17 14 17 19 20 21 21 18 19
3 3 4 4 4 4 8 8 9 12 12 13 13 15 16 16 17 18 20 20 19 20 17 17 17 16 16 17 16 17 14 13 10 12 12 13 17 19 20 17 17 17 17 17
4 4 4 4 5 4 6 7 9 11 9 14 14 15 16 17 18 17 19 20 20 18 17 15 16 12 15 18 16 16 16 11 11 12 12 15 19 20 19 18 18 18 16 17
4 4 4 4 4 5 6 6 7 8 11 13 16 15 17 16 15 17 17 18 16 17 11 11 15 14 16 16 17 15 13 10 11 9 12 12 15 18 20 18 13 17 15 16
4 4 4 4 5 5 6 7 6 7 9 13 16 15 16 17 15 16 15 17 17 14 8 10 12 13 16 14 14 12 10 9 10 6 9 11 15 18 19 16 14 16 15 15
4 4 4 4 5 5 6 6 7 8 9 11 12 16 17 17 17 15 14 14 14 9 12 11 10 10 12 12 14 13 13 10 8 10 9 14 16 18 17 14 14 15 15 16
4 4 4 5 5 6 6 6 7 6 7 10 10 12 13 20 17 14 13 16 15 13 12 10 9 11 8 12 12 15 15 12 11 12 12 14 17 17 15 14 14 14 13 13
4 4 5 5 5 6 6 7 7 7 8 9 10 12 17 17 21 22 15 14 16 14 13 10 10 12 7 11 10 14 16 15 13 14 15 14 13 12 13 12 11 10 10 10
4 5 5 5 6 6 6 6 7 8 9 9 12 15 15 16 18 21 21 17 15 13 11 8 8 10 11 8 13 11 14 15 15 13 13 13 12 11 11 10 9 8 8 8
5 5 5 6 6 5 6 6 7 7 9 10 10 12 16 17 18 20 20 16 14 11 10 7 9 7 10 5 9 9 14 14 12 11 14 12 11 10 9 9 8 7 6 5
5 5 5 5 5 6 6 7 7 7 8 9 9 11 12 14 14 14 16 15 13 12 11 7 10 12 10 9 8 14 13 13 13 13 12 10 8 8 8 6 6 5 5 4
5 5 6 6 6 6 8 9 9 9 8 9 9 9 11 12 11 10 12 12 11 12 11 8 10 11 9 5 10 13 12 11 11 10 9 8 8 6 6 5 5 4 4 3
5 5 6 6 6 7 8 9 9 8 9 10 9 10 10 11 9 10 9 9 10 10 10 8 7 9 5 10 11 11 11 10 10 9 9 8 6 6 5 5 5 4 3 2
6 6 6 6 7 8 9 11 8 8 9 9 7 9 11 9 7 7 8 8 9 8 8 8 9 7 8 11 11 11 10 10 7 7 7 6 5 5 4 4 3 2 1 1
5 6 7 7 8 8 8 8 9 8 8 6 7 8 9 10 6 7 6 6 8 9 8 7 7 7 8 7 8 9 8 8 7 6 5 5 4 4 4 3 2 2 0 -1
7 8 7 8 8 8 7 7 7 7 6 6 6 6 9 8 8 8 5 7 6 8 8 8 8 8 7 7 6 7 8 7 7 6 5 5 5 3 2 1 -0 -2 -2 -2
9 9 9 8 8 6 7 6 7 7 8 6 7 7 8 7 8 8 7 8 6 8 8 7 10 7 7 7 7 7 7 7 7 6 5 4 4 3 1 -1 -2 -2 -2 -2
9 6 5 8 5 7 7 8 8 7 5 5 5 7 6 6 7 6 6 8 7 6 10 9 5 6 6 6 6 5 5 4 3 3 2 1 0 -0 -1 -2 -3 -3 -3 -3
4 5 6 6 6 5 5 5 5 4 3 4 5 5 6 4 6 5 8 6 7 6 6 7 5 5 5 5 4 4 3 1 1 0 -1 -1 -1 -2 -2 -2 -2 -3 -4 -4
3 4 5 4 3 3 3 3 3 3 3 4 5 5 6 6 7 6 6 8 8 6 6 5 4 4 4 4 3 2 0 -0 -0 -1 -1 -2 -2 -3 -3 -3 -3 -3 -4 -4
2 3 4 3 4 4 3 3 3 3 2 3 4 6 6 6 6 8 7 8 7 5 4 3 3 3 3 3 2 1 0 -0 -1 -1 -2 -2 -3 -3 -3 -3 -3 -3 -4 -4
2 3 2 3 3 3 3 2 2 2 4 5 5 6 6 5 6 5 4 4 4 3 2 2 2 2 1 1 1 0 -0 -0 -1 -1 -2 -2 -3 -3 -4 -4 -4 -4 -4 -5

GFSNW_925_temp_033.txt.gz
Temp
5 6 5 6 7 6 6 7 9 9 10 10 10 11 14 16 17 18 18 18 18 19 19 19 19 20 21 19 18 20 18 16 14 20 21 21 21 21 18 14 18 12 12 16
6 5 5 5 7 7 6 7 9 9 11 11 10 12 14 15 17 16 17 18 19 20 18 20 19 19 20 19 19 18 18 17 14 18 19 20 22 20 18 16 12 15 13 16
5 5 5 5 6 6 6 7 9 10 10 13 13 12 13 14 16 16 17 17 18 20 20 20 18 19 20 19 19 16 17 17 17 16 18 19 21 21 19 17 13 15 13 18
5 5 4 5 6 6 5 7 10 12 11 10 12 13 14 14 15 15 16 16 17 17 18 20 19 19 19 19 17 18 18 18 19 19 20 20 20 21 19 18 18 16 18 16
5 4 4 5 7 5 4 7 9 11 11 12 12 12 13 14 15 15 16 17 18 18 16 18 18 18 18 19 19 19 17 16 19 19 18 18 19 19 19 18 19 17 18 18
4 4 4 5 7 5 4 6 7 9 12 12 12 13 13 14 15 15 17 18 18 16 17 17 18 18 18 19 18 16 16 13 13 16 15 16 14 16 17 18 18 19 18 18
4 4 5 5 5 5 5 7 7 9 11 12 12 13 13 14 15 16 17 17 17 18 16 16 16 15 15 15 14 15 13 12 10 11 12 13 17 18 17 17 17 16 16 16
4 4 5 5 4 4 4 8 7 9 9 12 13 12 13 14 15 15 17 17 18 16 16 14 15 12 15 16 14 14 14 10 10 12 12 15 18 17 17 17 18 17 15 14
4 4 4 4 4 4 3 5 7 7 9 11 14 13 14 13 14 14 15 17 15 14 11 10 14 14 15 14 16 14 12 10 12 9 12 13 15 17 18 16 13 16 15 15
4 4 3 4 4 4 4 5 7 8 7 10 13 13 13 14 14 14 14 14 15 14 8 9 11 12 15 14 14 12 10 8 10 6 9 11 14 17 17 16 15 14 14 14
3 3 3 4 4 4 4 4 6 7 7 9 11 11 13 15 15 14 13 15 13 8 12 11 10 10 12 12 14 13 13 11 8 7 9 14 15 16 16 13 14 14 14 13
3 3 4 4 4 3 4 6 6 7 7 8 8 9 10 11 16 14 11 16 14 13 12 9 9 9 7 11 12 14 15 12 11 12 12 14 15 16 15 13 13 13 13 12
4 4 4 4 4 4 4 6 6 7 7 7 8 10 15 14 13 17 14 12 14 13 12 10 9 12 8 11 10 13 14 13 12 13 15 14 13 11 11 12 11 10 11 10
4 4 4 4 4 5 5 7 7 8 8 8 11 12 12 14 15 16 19 16 13 11 10 9 8 10 10 9 12 10 12 13 12 11 12 12 11 10 8 8 7 7 7 7
4 4 4 4 5 5 6 6 7 8 9 8 9 9 12 13 14 16 18 14 13 11 10 7 10 8 10 5 8 8 12 13 12 11 12 12 11 8 8 8 7 6 6 5
4 4 5 5 5 5 6 6 6 8 7 8 7 9 10 12 14 13 16 14 12 11 11 7 9 11 11 10 9 14 13 13 13 14 11 9 8 7 7 6 5 5 4 4
5 4 5 5 5 5 6 7 8 9 7 8 7 5 9 11 11 10 11 11 11 11 10 7 9 10 10 5 10 14 11 10 9 8 8 7 7 5 5 4 4 4 3 3
4 4 5 5 6 6 6 9 8 9 8 8 8 8 8 10 8 10 9 9 9 10 9 7 7 8 5 11 11 9 9 9 8 7 8 7 5 5 4 4 3 3 2 1
5 6 5 5 5 6 7 8 7 8 9 9 7 8 9 9 7 7 8 8 9 8 8 8 9 7 10 10 10 9 9 9 6 6 5 5 4 4 3 3 2 1 0 -0
5 5 7 6 8 9 9 8 8 8 8 7 7 7 9 9 6 7 8 7 8 9 8 7 8 8 7 6 8 7 7 7 6 5 4 4 3 3 3 2 2 1 -0 -1
6 6 6 7 8 8 6 7 7 7 7 6 7 7 9 8 8 8 5 7 6 10 9 9 8 8 7 6 6 6 7 7 6 6 5 5 4 2 1 0 -0 -1 -1 -2
6 8 8 8 8 6 5 6 6 7 8 5 7 7 8 6 7 7 7 8 7 9 7 7 9 7 5 5 5 5 5 5 5 5 5 4 3 3 1 -0 -1 -2 -2 -3
7 6 5 6 4 7 7 8 7 7 5 5 5 6 5 6 6 5 5 6 6 5 9 9 7 6 6 5 5 4 5 5 4 3 3 2 0 -1 -1 -2 -3 -3 -3 -3
4 5 5 5 5 5 4 5 5 4 3 4 4 5 6 4 6 5 7 6 7 8 8 7 5 5 4 4 4 3 2 1 1 1 0 -1 -1 -3 -3 -3 -3 -3 -4 -4
3 4 5 4 3 3 3 3 3 3 3 4 5 5 6 5 6 6 7 8 8 6 5 5 4 4 3 3 2 1 0 -0 -0 -1 -1 -2 -2 -3 -4 -3 -3 -3 -4 -4
2 3 4 3 4 4 3 3 3 3 3 3 4 5 7 6 6 7 6 7 6 5 3 3 3 2 2 1 1 0 -0 -1 -1 -1 -2 -2 -3 -3 -4 -4 -4 -4 -4 -5
2 3 2 2 3 3 3 2 2 2 4 5 5 5 5 5 5 4 4 3 3 2 2 2 1 1 1 0 -0 -1 -1 -1 -1 -2 -3 -3 -4 -3 -4 -4 -5 -5 -5 -5

GFSNW_925_temp_039.txt.gz
Temp
6 6 5 5 5 6 5 6 6 7 8 8 10 11 13 14 16 16 17 17 17 18 17 17 18 19 21 18 19 20 19 18 18 21 20 20 20 21 20 20 19 16 16 20
6 6 5 5 5 5 5 5 7 7 8 9 11 12 13 13 15 16 16 16 16 18 18 18 18 18 19 16 19 19 18 18 19 20 20 19 20 19 18 16 16 17 18 21
6 6 5 5 5 5 5 6 6 7 7 11 12 11 12 13 14 15 16 16 16 18 18 17 18 18 18 16 18 15 19 17 19 20 21 20 19 19 18 19 18 18 18 21
6 6 5 5 5 5 5 6 7 8 7 8 11 12 12 13 13 15 15 15 16 16 17 18 17 17 17 17 14 17 19 19 17 18 19 19 20 20 18 19 19 20 21 18
6 6 5 5 5 5 5 6 7 8 10 9 10 11 12 13 14 15 15 15 16 16 16 18 17 17 17 18 15 17 16 18 17 18 17 18 19 19 18 18 18 18 18 19
5 5 5 5 5 5 5 5 5 9 10 10 9 11 12 13 13 14 15 15 15 15 17 17 17 17 18 17 17 16 16 15 16 18 15 17 16 17 19 18 18 19 19 21
5 5 5 5 5 5 5 6 6 7 9 9 10 11 12 13 13 13 15 15 15 16 16 16 16 14 15 15 15 15 14 15 14 15 13 17 20 17 18 19 19 18 18 18
5 5 5 5 5 5 5 6 6 7 9 11 11 11 11 13 13 13 14 15 15 15 16 15 16 13 15 14 13 14 14 13 13 15 16 17 18 17 18 18 21 19 18 17
5 5 5 5 5 5 5 6 7 6 9 9 12 11 12 11 12 12 12 14 14 13 12 12 14 15 15 15 15 13 12 12 16 12 16 17 18 18 16 18 18 17 16 15
5 5 5 5 5 5 5 6 7 7 7 8 9 12 11 12 12 11 11 13 13 14 9 11 13 15 15 15 14 13 13 12 14 11 15 15 16 16 16 18 20 16 16 15
5 5 5 5 5 5 6 4 6 6 6 6 8 8 10 12 12 11 11 12 12 9 11 12 13 12 13 14 14 14 15 14 13 11 14 17 15 15 18 18 15 15 15 14
5 4 5 5 4 5 5 4 5 6 6 6 7 8 8 8 14 13 12 13 12 12 12 10 9 11 9 14 16 13 16 16 16 16 17 16 15 17 16 14 16 14 15 13
5 5 4 4 4 4 4 5 5 5 5 6 6 7 9 9 10 13 12 11 13 12 12 10 11 12 10 12 12 14 13 13 15 16 16 15 14 14 14 14 14 13 14 13
4 4 4 4 4 4 4 5 5 6 6 5 7 8 8 10 10 10 12 13 11 11 11 10 9 11 12 12 14 13 13 14 13 14 14 13 14 13 13 11 11 10 10 10
4 4 4 4 4 3 4 5 6 6 6 7 7 8 9 9 9 9 11 12 12 11 11 8 11 9 10 8 10 11 13 14 14 15 17 17 17 15 10 10 10 10 9 7
4 4 4 4 4 4 4 4 5 5 6 6 7 8 8 10 10 10 10 11 12 12 11 9 10 11 11 11 13 16 14 13 14 17 13 9 8 9 9 9 8 7 8 7
3 4 5 4 4 4 5 5 6 5 6 7 6 7 8 9 10 10 10 10 11 12 11 9 11 11 11 8 14 17 14 13 11 10 11 10 9 9 7 6 5 5 5 4
4 4 4 4 4 4 4 5 6 7 7 7 6 6 7 9 8 10 9 9 9 10 10 7 9 9 7 10 13 11 10 10 9 9 8 11 7 6 5 4 4 4 3 2
4 4 4 4 4 5 6 7 7 7 7 6 5 7 9 8 8 8 8 8 9 8 8 9 10 8 11 12 11 10 9 10 8 6 6 6 6 5 4 4 4 3 2 2
4 4 5 3 4 6 7 6 6 6 7 7 7 7 9 8 6 7 7 6 8 10 9 7 9 9 8 7 7 8 7 7 7 5 5 4 4 4 3 3 3 3 2 1
4 4 4 5 7 7 5 4 6 6 7 7 6 7 8 8 8 8 7 7 7 10 10 10 9 10 7 6 6 6 6 7 7 7 5 5 5 3 3 2 2 1 1 0
6 6 7 6 6 5 5 6 5 6 8 6 7 7 8 6 7 7 7 8 7 10 7 9 10 7 5 6 5 5 5 5 5 5 3 3 2 2 1 1 0 -1 -2 -3
6 5 5 6 4 7 7 8 7 7 5 5 5 6 6 6 6 5 6 8 9 6 9 8 6 5 4 4 4 3 3 3 3 2 2 1 1 0 -1 -1 -2 -3 -3 -4
3 4 5 5 4 4 4 5 5 3 3 4 4 5 6 4 6 5 8 6 6 8 8 7 5 4 3 2 2 2 1 1 0 0 -0 -1 -1 -2 -2 -3 -3 -3 -4 -4
3 3 4 4 3 3 3 2 3 2 3 3 5 5 6 5 6 5 6 7 6 5 5 4 3 2 2 1 1 0 -0 -1 -1 -1 -2 -2 -2 -3 -3 -4 -4 -4 -4 -5
2 0 1 1 2 1 1 0 2 2 2 3 4 5 6 5 4 4 2 5 3 2 1 2 2 1 0 0 -0 -0 -1 -1 -2 -2 -2 -3 -4 -4 -5 -5 -5 -6 -5 -6
2 1 -1 -1 -1 -1 -1 -1 -0 0 3 4 4 2 1 2 2 1 -0 -0 -1 -2 -1 1 1 0 0 -0 -1 -1 -1 -2 -2 -3 -3 -4 -5 -5 -5 -5 -6 -6 -6 -6

GFSNW_925_temp_042.txt.gz
Temp
6 6 6 6 6 6 6 6 6 8 8 7 8 11 15 17 19 19 19 19 20 20 21 21 22 23 24 25 25 23 25 24 23 24 24 24 26 25 25 23 23 22 22 24
6 6 6 6 6 5 6 6 6 8 9 7 8 12 14 17 18 19 19 19 20 20 20 20 22 23 25 24 24 24 23 23 22 23 23 23 24 24 25 24 22 23 21 23
6 6 6 6 5 5 6 6 6 7 7 13 12 12 14 15 17 18 19 19 19 19 20 21 21 23 21 21 24 20 22 24 23 23 24 25 23 24 24 24 22 23 23 25
6 6 6 6 6 5 6 6 7 8 8 9 13 14 15 15 15 17 18 18 19 19 19 20 20 21 20 19 16 22 23 23 24 24 25 26 25 25 24 24 24 24 24 25
5 6 6 6 5 5 6 5 9 10 11 11 11 13 14 15 16 17 17 18 19 19 19 20 20 19 20 22 19 22 23 23 23 22 24 24 24 25 25 25 25 25 25 25
5 5 6 6 5 5 5 6 10 13 12 11 11 12 13 14 16 17 18 19 19 18 19 19 18 18 19 20 21 21 21 22 21 21 22 22 20 22 24 25 24 24 24 26
5 5 5 5 5 5 5 8 9 10 12 12 11 12 13 14 15 16 17 19 18 19 17 18 19 18 18 19 20 21 20 20 21 21 16 18 24 24 25 24 25 26 25 26
5 5 5 5 5 5 6 8 9 11 10 13 12 12 13 14 15 15 17 17 18 18 18 16 15 15 18 18 19 19 21 20 19 18 20 23 22 21 22 23 25 26 26 26
5 5 5 5 5 4 6 7 9 10 11 12 14 12 13 13 14 14 16 18 17 17 15 16 16 17 17 19 17 16 18 18 20 17 20 19 24 25 24 23 23 26 25 24
5 5 5 5 5 4 6 7 8 10 11 14 14 12 12 14 15 15 15 15 15 17 14 14 16 17 20 19 17 15 16 16 17 19 19 22 23 22 22 22 23 24 25 24
5 5 6 5 5 4 6 6 7 10 10 11 10 11 12 14 15 14 15 15 15 15 14 15 17 16 17 19 20 17 18 18 17 19 17 19 21 20 23 25 21 23 22 22
5 5 5 5 4 5 5 6 6 8 9 7 8 7 8 8 16 16 15 16 16 16 16 16 18 15 13 19 18 18 17 20 21 21 21 24 21 25 23 23 24 21 22 21
5 5 5 5 5 5 6 5 6 8 9 7 6 9 9 8 9 12 15 16 18 17 18 16 16 16 16 15 18 20 18 15 17 18 23 21 21 23 21 21 22 21 21 20
5 5 5 5 5 4 5 6 6 9 9 7 10 9 9 8 9 11 12 15 16 16 17 16 14 15 18 18 20 18 21 17 19 20 22 19 20 21 22 20 18 18 20 19
5 5 4 5 4 5 5 5 6 8 10 8 10 11 10 10 10 10 11 13 15 16 15 12 14 17 16 14 15 17 18 20 18 20 23 22 25 23 21 20 17 17 18 17
5 5 5 3 3 4 5 4 4 6 7 7 7 9 10 10 10 9 11 13 14 15 15 15 16 15 16 15 18 20 21 20 21 21 18 19 17 16 20 18 17 17 16 16
4 4 4 3 4 4 6 7 6 6 6 8 7 9 10 9 10 10 11 12 14 15 14 14 16 15 15 14 16 21 21 21 20 15 14 16 14 16 13 15 14 12 14 13
4 4 4 4 4 5 6 5 5 6 8 8 8 8 8 10 10 10 11 12 12 12 13 12 15 14 13 15 18 19 19 16 15 14 13 12 13 12 12 11 11 11 10 10
4 3 3 4 5 5 4 4 5 7 7 8 7 8 10 9 8 8 8 9 11 11 11 14 14 13 14 16 16 15 14 13 14 10 12 11 11 10 8 9 9 9 7 7
4 4 4 4 4 5 5 5 5 6 8 9 8 8 6 8 8 9 8 7 9 10 10 11 12 15 13 10 11 11 11 10 10 10 9 9 8 8 8 8 8 7 6 6
5 4 4 6 6 7 8 6 6 6 7 8 8 9 7 7 9 9 9 8 7 10 11 12 12 13 9 8 9 9 9 10 9 10 10 9 10 8 6 6 6 6 5 4
5 6 6 6 7 8 6 6 6 6 9 8 7 8 9 8 10 11 9 10 8 11 8 12 11 7 5 6 7 7 8 8 8 8 8 7 7 7 5 4 2 0 -1 -2
6 7 7 7 5 7 7 8 8 8 5 6 6 7 7 8 10 8 8 9 10 6 9 7 5 4 4 3 4 3 3 4 3 3 3 2 2 1 0 -1 -2 -2 -2 -3
4 5 5 6 6 5 5 5 6 5 4 4 5 6 7 5 6 6 10 7 7 9 8 6 4 3 2 2 2 1 1 0 0 -0 -1 -1 -2 -2 -2 -2 -2 -2 -2 -3
3 4 5 4 3 2 2 2 3 3 2 3 5 5 6 5 6 5 7 7 6 5 4 3 2 2 2 1 1 -0 -0 -1 -1 -1 -2 -2 -2 -2 -2 -3 -3 -4 -4 -5
2 -0 0 0 1 0 -0 -0 1 1 1 2 3 5 6 5 4 4 3 5 2 1 -0 -1 1 1 0 0 -0 -1 -1 -1 -2 -2 -2 -3 -3 -3 -4 -5 -5 -5 -5 -5
1 -0 -2 -2 -1 -2 -1 -1 -0 -0 3 4 4 3 2 4 3 1 0 -0 -1 -2 -2 -2 -1 -0 -0 -1 -1 -1 -1 -2 -2 -3 -3 -3 -4 -4 -4 -4 -5 -6 -6 -7

GFSNW_925_temp_048.txt.gz
Temp
6 6 6 6 6 7 6 6 7 9 9 7 8 10 12 14 17 19 19 21 20 23 24 24 23 24 26 28 27 25 25 25 23 26 28 28 27 27 26 24 23 24 21 24
6 6 6 6 6 7 6 6 6 9 9 7 8 11 13 14 15 17 19 20 20 22 23 22 24 24 26 25 26 25 25 24 22 24 25 27 26 27 27 27 26 24 20 23
6 6 6 6 6 6 6 6 6 7 8 12 11 11 13 13 15 16 19 20 21 21 22 22 23 23 26 25 25 20 22 24 23 22 24 26 25 26 26 25 22 22 23 25
6 6 6 6 6 6 6 6 7 8 8 8 12 12 14 14 14 16 17 19 20 21 18 21 20 23 22 24 23 23 23 23 24 25 26 27 26 26 26 26 26 24 25 25
6 6 7 6 6 6 6 4 9 11 12 10 11 12 13 14 16 16 16 18 20 21 20 21 20 22 22 23 23 23 24 22 23 22 25 25 25 25 27 27 27 27 27 27
5 5 5 5 6 6 7 5 9 12 11 10 10 11 13 14 16 17 18 18 19 20 20 20 17 20 19 22 22 22 22 22 21 20 24 24 22 25 26 27 27 27 26 27
5 5 5 5 6 6 5 4 10 10 11 11 11 13 14 14 16 16 18 19 18 21 21 17 14 18 19 19 22 22 21 21 20 17 18 19 24 26 27 26 26 27 28 28
4 5 5 5 5 5 4 4 9 10 10 13 12 13 14 15 16 16 17 19 20 21 18 14 11 13 14 18 21 21 21 20 19 18 18 22 24 25 25 25 25 27 27 28
4 4 4 5 5 5 5 3 7 10 10 12 14 13 14 14 15 16 17 18 20 20 18 14 13 12 17 18 20 21 20 19 18 18 18 18 22 25 26 26 22 27 27 27
4 4 4 5 5 5 5 4 5 9 9 13 14 14 14 15 15 15 17 17 18 16 16 14 12 13 20 19 19 16 16 16 16 17 17 20 24 25 26 22 22 26 27 27
5 5 4 5 5 5 5 4 5 8 8 13 12 12 10 13 16 15 17 17 16 12 13 15 16 16 18 19 21 16 14 15 15 17 17 18 24 24 23 24 24 26 26 26
5 5 5 4 5 5 4 5 5 8 9 8 9 10 10 11 14 16 16 17 17 16 13 16 17 16 16 19 17 21 16 16 16 19 20 21 22 22 24 24 25 25 25 26
5 5 5 4 5 5 5 6 6 6 7 9 9 10 10 10 12 14 15 17 17 16 14 16 17 16 17 16 18 20 21 20 18 17 19 20 22 21 23 23 22 25 25 26
5 5 4 5 5 5 5 5 6 6 9 8 8 9 12 13 11 12 12 14 14 16 18 16 16 15 20 17 19 18 20 21 20 20 21 22 22 20 21 23 23 24 24 24
5 4 5 5 5 5 6 6 6 7 9 8 8 11 13 12 12 12 13 13 12 12 12 13 14 15 17 19 19 19 21 21 19 19 22 20 21 21 22 22 22 23 23 22
5 5 5 4 5 5 6 4 6 8 8 10 9 13 12 12 12 12 13 13 12 12 13 13 17 19 18 16 17 20 21 21 22 21 22 20 20 20 21 21 20 23 22 22
5 5 4 5 5 6 7 8 6 7 9 10 11 11 13 13 12 11 11 13 10 10 12 12 15 17 17 15 15 20 21 21 21 21 21 20 21 19 18 17 18 20 22 21
4 4 5 5 6 7 7 6 7 9 9 11 10 10 11 13 11 10 12 11 12 12 12 13 15 16 14 15 18 19 20 20 20 16 17 18 17 17 17 17 17 17 18 19
4 5 5 6 5 6 6 7 8 8 9 10 10 10 9 7 11 11 11 12 10 13 13 13 15 14 12 8 9 12 14 14 14 15 15 15 16 16 16 14 14 14 14 14
5 6 5 5 6 6 8 7 7 7 9 10 9 12 8 9 6 8 9 10 9 11 13 13 12 12 6 5 4 6 7 10 13 12 12 12 12 14 14 14 13 14 12 10
6 7 5 5 5 6 7 7 8 8 7 10 11 10 8 7 7 7 8 9 7 11 13 12 13 8 4 3 3 4 5 7 9 10 11 11 11 12 12 10 7 5 3 2
5 6 5 5 5 6 7 7 5 6 10 10 9 9 9 7 7 5 7 8 8 10 11 10 7 4 4 3 2 2 2 3 3 4 4 3 4 3 2 1 0 -0 -1 -2
7 8 7 8 6 7 7 7 8 7 4 5 8 8 7 7 6 4 6 8 8 6 7 6 4 3 3 2 1 0 0 0 0 -0 -0 -1 -1 -1 -1 -2 -2 -3 -3 -4
7 6 5 6 6 5 4 4 4 4 3 3 4 6 5 4 5 5 8 6 6 8 7 4 2 2 1 1 -0 -0 -1 -1 -1 -1 -2 -2 -2 -3 -3 -3 -3 -4 -4 -4
3 4 3 3 2 2 2 2 3 2 2 2 5 5 6 6 6 5 8 8 5 4 2 1 1 0 0 -0 -0 -1 -1 -2 -2 -2 -2 -3 -3 -3 -3 -4 -5 -5 -5 -5
1 -0 1 1 2 1 1 2 2 3 2 2 4 6 6 4 5 5 4 5 2 1 0 -1 -1 -1 -1 -1 -1 -2 -2 -2 -2 -3 -3 -4 -4 -4 -5 -5 -5 -5 -5 -5
1 -0 -1 -0 0 -0 1 1 1 1 2 5 4 4 4 5 3 2 1 0 -1 -1 -2 -2 -3 -3 -3 -3 -3 -4 -3 -3 -3 -3 -4 -4 -4 -5 -5 -5 -5 -6 -6 -6

GFSNW_925_temp_051.txt.gz
Temp
5 6 6 6 6 7 6 6 6 7 7 6 7 8 10 12 14 14 14 16 17 17 17 18 18 21 22 24 24 23 23 21 19 22 25 26 24 23 22 18 20 18 14 18
5 5 6 6 6 7 6 6 6 8 8 7 7 9 10 10 11 13 15 15 17 18 17 16 18 20 22 21 23 23 22 19 19 19 22 25 24 24 24 22 20 17 16 18
5 5 5 6 6 6 6 5 6 7 7 9 9 9 9 9 12 12 13 14 15 15 17 18 17 19 21 20 23 19 22 20 19 19 21 23 23 23 24 22 17 19 17 21
4 5 5 5 6 6 6 5 6 7 8 7 8 9 10 10 10 13 13 13 14 15 15 17 17 18 18 17 19 21 21 19 21 21 23 24 24 24 24 23 22 19 20 22
5 5 5 5 6 6 7 4 6 8 9 9 8 9 9 10 12 12 13 13 14 15 15 16 17 15 16 15 17 19 20 18 20 20 22 23 23 24 23 22 23 23 22 22
5 5 5 5 6 6 7 6 6 9 9 8 8 8 9 11 11 12 14 14 13 13 15 17 16 14 15 15 14 15 18 17 17 17 21 21 18 20 23 23 23 23 21 22
5 5 5 6 6 6 7 6 8 7 8 8 8 10 10 10 12 12 14 15 14 15 16 15 14 14 14 15 15 16 14 17 15 14 17 17 21 23 24 23 23 23 24 24
4 5 5 6 5 6 5 4 7 8 7 9 10 9 10 11 12 12 13 15 16 16 15 13 12 11 13 13 16 16 15 15 14 16 17 18 21 23 23 23 22 24 24 23
4 4 4 5 5 6 5 4 5 6 7 9 11 10 11 10 11 11 12 14 14 15 14 12 12 10 13 13 15 17 15 16 14 13 15 16 18 21 23 23 19 22 23 22
4 4 4 4 5 5 5 5 4 4 5 10 12 11 11 12 12 11 12 13 13 14 10 12 11 11 15 13 11 15 14 12 14 11 12 14 20 22 24 19 19 22 22 23
5 5 5 4 4 5 4 4 3 4 3 8 11 11 10 12 12 11 12 12 12 10 11 11 10 9 14 15 15 12 13 13 12 13 13 14 17 20 20 19 21 21 22 23
5 5 5 4 4 4 4 5 3 4 4 7 8 11 12 11 11 11 11 12 14 10 10 9 10 10 11 13 12 15 13 14 13 14 13 16 17 17 18 20 21 21 21 21
5 5 5 4 4 4 5 5 4 4 4 6 8 9 10 10 11 10 9 10 14 11 10 9 11 11 11 12 14 15 15 15 14 15 17 18 19 18 18 17 17 19 22 21
5 5 5 4 4 4 5 5 5 5 6 6 7 7 9 11 11 11 10 11 12 11 10 10 10 9 14 10 14 13 14 15 16 16 17 18 18 18 18 18 18 18 19 22
5 5 5 4 5 5 4 5 6 6 7 7 7 8 10 10 10 10 9 11 10 9 9 7 9 10 12 12 12 13 16 15 13 12 18 17 18 18 17 18 18 19 18 19
5 5 5 5 4 4 5 5 4 4 6 8 6 9 10 11 11 10 10 10 9 9 10 9 9 11 13 10 11 16 17 18 17 17 20 18 19 18 16 17 18 17 16 18
5 5 4 4 5 5 6 6 6 5 7 8 7 8 10 11 10 9 9 10 9 9 9 9 11 11 12 7 9 12 14 15 15 14 15 17 13 16 15 15 15 15 16 16
5 4 5 5 5 7 6 6 7 7 8 8 6 5 7 9 7 7 8 8 8 8 8 9 9 10 9 9 7 7 8 10 12 12 12 13 14 14 13 12 12 12 12 12
5 5 6 6 6 5 5 6 8 9 8 7 5 5 6 6 6 7 8 8 7 8 6 8 9 7 7 5 4 5 6 7 9 10 11 11 11 11 12 11 11 10 8 6
6 6 5 4 5 7 7 7 6 6 6 7 5 6 6 7 5 7 7 5 5 6 6 9 7 5 4 3 3 3 3 6 7 7 6 6 6 9 5 5 4 3 2 1
7 5 5 5 5 7 6 4 5 5 5 7 7 5 6 6 6 6 5 7 6 9 8 9 8 4 3 2 2 2 2 3 4 5 4 4 3 3 2 1 0 -1 -2 -2
5 5 5 5 5 6 5 4 4 5 7 6 5 5 6 6 5 4 5 7 6 8 7 6 4 2 2 1 0 0 0 1 1 0 1 0 0 -1 -1 -2 -3 -3 -4 -5
7 7 4 6 4 5 5 6 6 6 3 3 4 6 3 5 5 4 6 7 8 5 5 3 1 1 1 -0 -0 -1 -1 -1 -1 -2 -2 -3 -3 -3 -3 -3 -4 -4 -5 -5
4 5 3 3 3 2 2 2 2 2 2 2 3 4 5 3 4 5 7 6 5 5 4 0 0 -0 -1 -1 -1 -1 -2 -2 -3 -3 -3 -4 -4 -4 -5 -5 -5 -5 -5 -6
0 1 1 -0 1 0 1 1 2 2 1 2 4 4 4 4 5 4 5 5 2 2 -0 -1 -2 -2 -2 -2 -2 -2 -3 -3 -4 -4 -4 -4 -4 -4 -5 -5 -5 -5 -5 -6
-1 -2 -2 -2 -2 -4 -2 0 1 1 1 1 3 5 4 3 2 2 1 1 0 -1 -2 -3 -3 -3 -4 -4 -3 -3 -3 -4 -4 -4 -5 -5 -5 -5 -6 -6 -6 -6 -6 -6
-0 -2 -2 -4 -3 -2 -1 -1 -1 -0 2 3 3 1 1 2 -1 -2 -2 -3 -3 -3 -4 -4 -4 -4 -4 -4 -5 -5 -5 -5 -5 -4 -4 -5 -5 -5 -5 -6 -6 -7 -7 -7

GFSNW_925_temp_054.txt.gz
Temp
5 5 5 5 6 6 6 6 6 6 6 6 6 7 10 11 12 13 13 14 14 15 16 16 17 18 20 20 22 20 20 19 19 20 22 22 22 22 21 18 19 17 14 19
4 5 5 5 6 6 6 6 6 6 7 6 6 8 9 10 11 12 11 13 14 15 14 13 16 17 19 18 19 20 20 18 17 19 21 22 21 22 22 20 17 17 16 18
4 4 5 5 5 6 6 4 6 6 6 7 8 8 9 9 11 10 11 11 12 13 13 14 14 15 18 17 17 15 16 18 20 19 19 20 22 22 23 21 15 18 17 20
4 4 5 5 5 6 6 4 5 7 7 6 7 8 10 9 9 10 11 11 11 11 11 13 14 16 16 17 16 16 17 18 20 21 21 22 22 22 22 21 20 19 20 20
4 4 4 5 5 5 6 4 6 7 7 8 7 8 8 9 10 11 10 10 12 12 11 12 13 14 15 16 16 15 15 15 19 18 20 21 20 22 22 22 22 21 21 20
4 4 5 5 5 5 6 6 5 8 8 8 7 8 8 9 9 10 11 12 12 11 12 13 13 13 14 15 16 13 13 13 13 17 19 21 18 19 20 21 21 21 20 20
4 5 5 5 5 5 6 6 6 6 7 8 8 9 9 9 10 9 12 12 11 13 14 14 13 13 13 13 14 14 14 13 13 13 15 16 20 22 21 21 22 21 22 22
5 5 5 5 5 5 5 6 6 6 7 8 9 9 9 10 10 10 10 11 12 12 13 12 12 9 12 13 14 13 14 13 11 12 15 18 19 21 20 20 20 22 22 23
4 5 5 5 5 5 5 6 6 6 7 8 9 9 9 8 8 8 10 12 11 13 11 9 10 9 12 13 13 15 13 14 12 12 13 16 18 20 22 22 17 21 21 22
4 4 4 4 5 4 4 6 5 3 5 7 9 9 9 10 9 8 9 10 10 11 8 6 8 11 13 12 10 11 12 11 12 11 11 13 16 18 21 19 19 21 22 22
4 4 4 4 4 4 4 4 4 4 3 4 7 11 9 10 10 9 9 10 9 8 8 8 8 7 11 12 12 11 11 11 11 11 12 13 17 19 20 17 15 19 19 20
5 5 5 4 4 4 4 4 3 4 5 5 5 6 9 12 12 11 9 10 11 10 8 7 8 8 6 11 11 12 12 12 12 12 12 15 16 17 16 17 17 17 16 17
5 5 5 4 4 4 4 4 3 4 4 4 5 6 8 10 12 13 9 9 12 10 8 8 9 10 7 9 9 13 13 14 11 13 15 16 17 16 16 17 17 17 17 17
4 5 5 4 4 5 4 4 4 5 4 5 6 6 6 9 11 12 11 10 11 10 8 8 6 7 10 7 12 10 13 13 14 14 15 17 17 17 17 17 15 17 17 18
5 5 5 5 4 4 4 4 4 7 6 5 6 6 8 10 10 10 10 9 10 9 8 7 7 8 10 9 10 11 13 13 13 12 15 16 16 17 17 17 18 18 17 17
5 5 5 5 4 4 4 4 4 6 7 7 6 6 9 9 9 9 9 8 9 9 9 8 8 9 10 9 10 11 9 9 11 11 11 15 16 15 16 17 15 15 15 16
5 5 4 4 4 4 5 5 5 6 6 5 6 7 8 9 8 7 7 8 8 8 8 8 9 9 11 7 10 7 7 7 9 10 11 13 11 11 11 12 13 12 12 10
5 5 5 4 4 5 6 5 6 5 4 6 6 6 6 7 7 7 7 7 7 7 8 6 8 9 9 8 5 5 5 6 8 8 8 9 10 10 10 10 10 7 5 4
4 4 4 4 5 5 5 5 5 5 5 6 4 6 7 6 5 5 6 6 6 6 6 5 8 6 4 3 3 3 3 4 5 7 6 6 6 5 5 5 5 3 1 0
4 4 4 2 5 5 5 5 5 5 5 5 4 4 6 6 3 6 6 3 4 7 6 6 4 3 3 2 2 2 1 3 4 5 5 4 4 3 2 1 1 0 -1 -2
6 4 4 5 6 6 5 4 4 4 5 5 4 3 4 4 4 5 5 6 6 8 7 6 4 2 1 1 0 0 1 2 1 2 2 2 1 1 0 -1 -2 -3 -3 -4
5 5 5 5 5 5 4 4 3 4 6 5 3 4 5 4 4 4 5 7 6 8 5 4 1 1 0 -0 -0 -1 -1 -1 -1 -1 -1 -2 -2 -2 -3 -3 -4 -4 -5 -5
7 5 4 5 2 2 2 4 4 4 3 3 4 6 5 4 4 4 5 7 7 4 3 0 0 -1 -1 -1 -2 -2 -2 -2 -3 -3 -4 -4 -4 -5 -5 -5 -5 -6 -6 -6
2 2 -0 -1 -0 0 -0 -1 -1 0 2 2 2 4 5 4 2 4 6 3 3 2 -1 -1 -1 -2 -2 -2 -2 -3 -4 -4 -4 -4 -4 -5 -5 -5 -5 -6 -6 -6 -6 -7
-1 -0 -2 -2 -2 -3 -2 -1 -2 -0 1 1 3 4 4 3 3 2 3 1 -0 -0 -2 -3 -3 -4 -3 -3 -4 -4 -4 -4 -5 -5 -5 -5 -6 -6 -6 -6 -6 -6 -6 -7
-2 -2 -4 -4 -4 -3 -3 -1 -1 -1 0 1 2 4 3 1 0 -0 -1 -0 -2 -2 -3 -3 -4 -4 -5 -5 -5 -4 -4 -5 -5 -5 -5 -6 -6 -6 -7 -7 -7 -7 -7 -8
-3 -4 -6 -7 -7 -5 -4 -3 -2 -1 1 1 1 -1 0 0 -1 -2 -2 -3 -4 -4 -5 -5 -5 -5 -5 -6 -6 -6 -6 -7 -7 -7 -6 -7 -6 -6 -7 -7 -8 -8 -8 -9